WGS F7 (USA 263)

Last updated on Nov. 18, 2019, 4:21 a.m. UTC

1 40746U 15036A   19321.19912017  .00000026  00000-0  00000+0 0  9999
2 40746   0.0110 304.7621 0000171 254.0392 103.8862  1.00271583 15766
UTC
Height (km)
Latitude
Longitude
Inclination
Orbital Period
UTC large
Height (km)
Speed (km/s)
/
Latitude / Longitude
Inclination (degrees)
Orbital Period (minutes)
Azimuth
Elevation
Range (km)
Doppler Factor
iOS Compass Heading
iOS Angle

Next 30 passes for location: Hong Kong

Rise time Rise Azimuth (degrees) Set time Set Azimuth (degrees) Duration Max altitude (degrees)

No matching passes for this satellites